This demonstration page uses our WeatherBlox Daily Observations layout. Learn more.

Left ArrowRight Arrow

40.92945, -100.16068

Hourly Observations for February 27, 2015

Temp ( °F °C ) Dew Point ( °F °C ) Humidity (%) Winds ( mph kmh ) Pressure ( in mb ) Visibility ( mi km ) Precip ( " mm )
12:15 am 00:15 Clear 2 -16.6 -6 -21.1 68 68 Calm 30.74 1041 10 16 N/A
12:35 am 00:35 Clear 2 -16.4 -6 -20.9 68 68 Calm 30.74 1041 10 16 N/A
12:55 am 00:55 Clear 1 -17.5 -7 -21.4 72 72 Calm 30.74 1041 10 16 N/A
1:15 am 01:15 Clear -1 -18.5 -7 -21.7 76 76 Calm 30.77 1042 10 16 N/A
1:35 am 01:35 Clear -1 -18.5 -7 -21.7 76 76 NNE 5 7 30.74 1041 10 16 N/A
1:55 am 01:55 Clear -1 -18.6 -7 -21.5 78 78 SSW 5 7 30.77 1042 10 16 N/A
2:15 am 02:15 Clear -1 -18.1 -7 -21.4 76 76 Calm 30.77 1042 10 16 N/A
2:35 am 02:35 Clear -1 -18.1 -6 -21.3 76 76 Calm 30.74 1041 10 16 N/A
2:55 am 02:55 Clear 0 -18 -5 -20.8 79 79 Calm 30.74 1041 10 16 N/A
3:15 am 03:15 Clear 1 -17.5 -5 -20.6 77 77 Calm 30.71 1040 10 16 N/A
3:35 am 03:35 Clear 0 -17.8 -5 -20.8 78 78 Calm 30.74 1041 10 16 N/A
3:55 am 03:55 Clear 1 -17.5 -5 -20.4 78 78 Calm 30.71 1040 10 16 N/A
4:15 am 04:15 Clear -1 -18.5 -7 -21.7 76 76 Calm 30.74 1041 10 16 N/A
4:35 am 04:35 Clear -3 -19.5 -8 -22 81 81 Calm 30.74 1041 10 16 N/A
4:55 am 04:55 Clear -3 -19.5 -8 -22 81 81 N 3 6 30.74 1041 10 16 N/A
5:15 am 05:15 Clear -4 -20.1 -9 -22.6 81 81 Calm 30.74 1041 10 16 N/A
5:35 am 05:35 Clear -4 -20 -9 -22.5 81 81 N 3 6 30.74 1041 10 16 N/A
5:55 am 05:55 Mostly Cloudy -3 -19.7 -8 -22.2 81 81 N 3 6 30.74 1041 10 16 0.00 0.00
6:15 am 06:15 Cloudy -2 -19 -7 -21.5 81 81 Calm 30.74 1041 10 16 N/A
6:35 am 06:35 Cloudy -1 -18.5 -6 -21 81 81 Calm 30.74 1041 10 16 N/A
6:55 am 06:55 Mostly Cloudy -1 -18.3 -6 -21 80 80 Calm 30.74 1041 10 16 N/A
7:15 am 07:15 Partly Cloudy -1 -18.5 -6 -21 81 81 Calm 30.74 1041 10 16 N/A
7:35 am 07:35 Partly Cloudy -1 -18.1 -5 -20.6 81 81 Calm 30.74 1041 10 16 N/A
7:55 am 07:55 Partly Cloudy 1 -17.2 -3 -19.7 81 81 Calm 30.71 1040 10 16 N/A
8:15 am 08:15 Partly Cloudy 3 -16.2 -2 -19 79 79 Calm 30.71 1040 10 16 N/A
8:35 am 08:35 Cloudy 5 -14.9 0 -18 77 77 Calm 30.68 1039 10 16 N/A
8:55 am 08:55 Cloudy 8 -13.3 2 -16.9 75 75 S 5 7 30.68 1039 10 16 N/A
9:15 am 09:15 Cloudy 10 -12.3 2 -16.8 69 69 SSE 6 9 30.65 1038 10 16 N/A
9:35 am 09:35 Cloudy 11 -11.6 1 -17.5 62 62 S 7 11 30.65 1038 10 16 N/A
9:55 am 09:55 Cloudy 12 -11.1 0 -17.8 58 58 S 8 13 30.65 1038 10 16 N/A
10:15 am 10:15 Cloudy 13 -10.8 0 -17.9 56 56 S 8 13 30.65 1038 10 16 N/A
10:35 am 10:35 Cloudy 15 -9.7 1 -17.1 55 55 S 10 17 30.65 1038 10 16 N/A
10:55 am 10:55 Partly Cloudy 15 -9.6 0 -17.7 52 52 S 10 17 30.65 1038 10 16 N/A
11:15 am 11:15 Sunny 16 -9 -1 -18.1 48 48 S 10 17 30.59 1036 10 16 N/A
11:35 am 11:35 Sunny 17 -8.3 0 -17.8 47 47 S 8 13 30.59 1036 10 16 N/A
11:55 am 11:55 Sunny 18 -7.7 -1 -18.1 43 43 SSE 9 15 30.59 1036 10 16 N/A
12:15 pm 12:15 Sunny 19 -7 -1 -18.1 41 41 SSW 8 13 30.56 1035 10 16 N/A
12:35 pm 12:35 Partly Cloudy 20 -6.8 -1 -18.3 40 40 S 12 19 30.56 1035 10 16 N/A
12:55 pm 12:55 Sunny 20 -6.7 0 -18 41 41 S 13 20 30.56 1035 10 16 N/A
1:15 pm 13:15 Sunny 22 -5.6 -1 -18.5 36 36 S 10 17 30.53 1034 10 16 N/A
1:35 pm 13:35 Sunny 21 -6 -2 -18.7 36 36 S 8 13 30.53 1034 10 16 N/A
1:55 pm 13:55 Mostly Cloudy 22 -5.5 -1 -18.5 35 35 SSW 10 17 30.48 1032 10 16 N/A
2:15 pm 14:15 Cloudy 24 -4.7 -1 -18.6 33 33 S 12 19 30.48 1032 10 16 N/A
2:35 pm 14:35 Partly Cloudy 24 -4.6 -2 -19 32 32 S 12 19 30.48 1032 10 16 N/A
2:55 pm 14:55 Partly Cloudy 24 -4.6 -2 -19.1 32 32 SSE 14 22 30.45 1031 10 16 N/A
3:15 pm 15:15 Sunny 24 -4.3 -3 -19.6 30 30 SSW 8 13 30.45 1031 10 16 N/A
3:35 pm 15:35 Partly Cloudy 25 -4 -2 -19.1 30 30 S 13 20 30.45 1031 10 16 N/A
3:55 pm 15:55 Partly Cloudy 24 -4.3 -2 -19 31 31 S 14 22 30.45 1031 10 16 N/A
4:15 pm 16:15 Partly Cloudy 24 -4.4 -3 -19.2 31 31 SSE 14 22 30.45 1031 10 16 N/A
4:35 pm 16:35 Mostly Cloudy 23 -4.8 -3 -19.6 31 31 S 13 20 30.45 1031 10 16 N/A
4:55 pm 16:55 Partly Cloudy 24 -4.6 -3 -19.2 31 31 S 13 20 30.45 1031 10 16 N/A
5:15 pm 17:15 Partly Cloudy 23 -4.8 -2 -19.1 32 32 S 12 19 30.45 1031 10 16 N/A
5:35 pm 17:35 Sunny 22 -5.6 -2 -19.1 34 34 S 14 22 30.48 1032 10 16 N/A
5:55 pm 17:55 Sunny 21 -6.2 -3 -19.3 35 35 S 15 24 30.48 1032 10 16 N/A
6:15 pm 18:15 Sunny 20 -6.7 -2 -19.1 37 37 SSE 13 20 30.48 1032 10 16 N/A
6:35 pm 18:35 Clear 19 -7 -2 -19 38 38 SSE 13 20 30.48 1032 10 16 N/A
6:55 pm 18:55 Clear 18 -7.6 -2 -18.9 40 40 S 10 17 30.48 1032 10 16 N/A
7:15 pm 19:15 Clear 17 -8.2 -1 -18.5 44 44 SSE 10 17 30.48 1032 10 16 N/A
7:35 pm 19:35 Clear 17 -8.5 -1 -18.5 45 45 SSE 9 15 30.48 1032 10 16 N/A
7:55 pm 19:55 Clear 16 -8.8 -2 -18.8 45 45 SSE 10 17 30.50 1033 10 16 N/A
8:15 pm 20:15 Clear 16 -9 -2 -18.8 45 45 SSE 13 20 30.50 1033 10 16 N/A
8:35 pm 20:35 Clear 15 -9.3 -1 -18.5 48 48 SSE 12 19 30.50 1033 10 16 N/A
8:55 pm 20:55 Clear 14 -9.9 0 -18 52 52 SSE 10 17 30.50 1033 10 16 N/A
9:15 pm 21:15 Clear 14 -10.1 2 -16.7 59 59 SSE 12 19 30.50 1033 10 16 N/A
9:35 pm 21:35 Clear 14 -10.2 4 -15.6 65 65 SSE 10 17 30.50 1033 10 16 N/A
9:55 pm 21:55 Clear 13 -10.3 5 -15.1 68 68 S 12 19 30.50 1033 10 16 N/A
10:15 pm 22:15 Clear 13 -10.7 5 -15.1 70 70 S 10 17 30.50 1033 10 16 N/A
10:35 pm 22:35 Clear 12 -11.1 5 -15.1 73 73 S 9 15 30.50 1033 10 16 N/A
10:55 pm 22:55 Clear 12 -11.2 5 -15 74 74 S 9 15 30.50 1033 10 16 N/A
11:15 pm 23:15 Mostly Cloudy 15 -9.6 7 -13.7 72 72 SSE 12 19 30.50 1033 10 16 N/A
11:35 pm 23:35 Cloudy 16 -9 8 -13.6 70 70 SSE 9 15 30.50 1033 10 16 N/A
11:55 pm 23:55 Cloudy 16 -8.8 7 -13.8 67 67 SSE 14 22 30.50 1033 10 16 N/A

Powered by AerisWeather